When you browse on this site, cookies collect data to enhance your experience and personalize the content and advertising you see.
Visit our Privacy Policy to learn more. By continuing to use the site, you agree to this use of cookies and data.
  • In Latvia
  • List of Countries
  • For 7 days
  • Water Temperature
  • Weather Map
  • Weather Widgets
  • user-avatar
    Login

    Hourly Weather Mokryy Log

    Today, 22 August, Thursday

    Time Temperature Precipitation Wind Pressure Humidity
    00:00 +29°C° 0 mm 6 mps 756 mmHg 44%
    01:00 +28°C° 0 mm 5 mps 756 mmHg 47%
    02:00 +27°C° 0 mm 5 mps 756 mmHg 50%
    03:00 +27°C° 0 mm 4 mps 757 mmHg 50%
    04:00 +26°C° 0 mm 4 mps 756 mmHg 53%
    05:00 +26°C° 0 mm 4 mps 756 mmHg 57%
    06:00 +25°C° 0 mm 4 mps 756 mmHg 60%
    07:00 +27°C° 0 mm 5 mps 757 mmHg 55%
    08:00 +29°C° 0 mm 5 mps 757 mmHg 49%
    09:00 +32°C° 0 mm 5 mps 757 mmHg 44%
    10:00 +34°C° 0 mm 5 mps 757 mmHg 39%
    11:00 +36°C° 0 mm 5 mps 757 mmHg 34%
    12:00 +37°C° 0 mm 5 mps 756 mmHg 29%
    13:00 +39°C° 0 mm 5 mps 756 mmHg 27%
    14:00 +39°C° 0 mm 5 mps 756 mmHg 25%
    15:00 +40°C° 0 mm 5 mps 756 mmHg 24%
    16:00 +39°C° 0 mm 5 mps 756 mmHg 25%
    17:00 +37°C° 0 mm 5 mps 756 mmHg 26%
    18:00 +36°C° 0 mm 4 mps 756 mmHg 27%
    19:00 +34°C° 0 mm 4 mps 756 mmHg 31%
    20:00 +32°C° 0 mm 4 mps 756 mmHg 35%
    21:00 +29°C° 0 mm 4 mps 757 mmHg 38%
    22:00 +29°C° 0 mm 4 mps 757 mmHg 42%
    23:00 +28°C° 0 mm 4 mps 757 mmHg 45%

    Tomorrow, 23 August, Friday

    Time Temperature Precipitation Wind Pressure Humidity
    00:00 +27°C° 0 mm 4 mps 757 mmHg 48%
    01:00 +27°C° 0 mm 4 mps 757 mmHg 49%
    02:00 +27°C° 0 mm 5 mps 757 mmHg 49%
    03:00 +26°C° 0 mm 5 mps 757 mmHg 50%
    04:00 +26°C° 0 mm 5 mps 757 mmHg 49%
    05:00 +26°C° 0 mm 5 mps 757 mmHg 49%
    06:00 +26°C° 0 mm 5 mps 757 mmHg 48%
    07:00 +28°C° 0 mm 6 mps 757 mmHg 44%
    08:00 +29°C° 0 mm 6 mps 757 mmHg 40%
    09:00 +32°C° 0 mm 7 mps 757 mmHg 35%
    10:00 +34°C° 0 mm 7 mps 757 mmHg 33%
    11:00 +35°C° 0 mm 7 mps 757 mmHg 30%
    12:00 +38°C° 0 mm 7 mps 757 mmHg 27%
    13:00 +38°C° 0 mm 7 mps 757 mmHg 27%
    14:00 +38°C° 0 mm 7 mps 757 mmHg 26%
    15:00 +39°C° 0 mm 6 mps 757 mmHg 25%
    16:00 +38°C° 0 mm 6 mps 757 mmHg 27%
    17:00 +38°C° 0 mm 6 mps 757 mmHg 28%
    18:00 +36°C° 0 mm 5 mps 757 mmHg 29%
    19:00 +34°C° 0 mm 5 mps 757 mmHg 33%
    20:00 +33°C° 0 mm 6 mps 757 mmHg 37%
    21:00 +30°C° 0 mm 6 mps 758 mmHg 41%
    22:00 +29°C° 0 mm 6 mps 757 mmHg 43%
    23:00 +28°C° 0 mm 5 mps 757 mmHg 44%

    Day after tomorrow, 24 August, Saturday

    Time Temperature Precipitation Wind Pressure Humidity
    00:00 +28°C° 0 mm 5 mps 757 mmHg 46%
    01:00 +27°C° 0 mm 5 mps 757 mmHg 48%
    02:00 +27°C° 0 mm 5 mps 757 mmHg 50%
    03:00 +26°C° 0 mm 5 mps 757 mmHg 52%
    04:00 +26°C° 0 mm 6 mps 757 mmHg 54%
    05:00 +24°C° 0 mm 6 mps 757 mmHg 57%
    06:00 +24°C° 0 mm 6 mps 757 mmHg 59%
    07:00 +27°C° 0 mm 6 mps 758 mmHg 55%
    08:00 +28°C° 0 mm 7 mps 758 mmHg 52%
    09:00 +30°C° 0 mm 7 mps 758 mmHg 48%
    10:00 +32°C° 0 mm 7 mps 758 mmHg 43%
    11:00 +34°C° 0 mm 7 mps 758 mmHg 37%
    12:00 +36°C° 0 mm 7 mps 758 mmHg 32%
    13:00 +36°C° 0 mm 7 mps 758 mmHg 31%
    14:00 +38°C° 0 mm 7 mps 758 mmHg 30%
    15:00 +38°C° 0 mm 7 mps 758 mmHg 28%
    16:00 +38°C° 0 mm 6 mps 758 mmHg 29%
    17:00 +36°C° 0 mm 6 mps 757 mmHg 30%
    18:00 +35°C° 0 mm 5 mps 757 mmHg 31%
    19:00 +34°C° 0 mm 5 mps 758 mmHg 34%
    20:00 +32°C° 0 mm 5 mps 758 mmHg 37%
    21:00 +30°C° 0 mm 5 mps 758 mmHg 40%
    22:00 +29°C° 0 mm 5 mps 758 mmHg 42%
    23:00 +28°C° 0 mm 4 mps 758 mmHg 45%

    25 August, Sunday

    Time Temperature Precipitation Wind Pressure Humidity
    00:00 +28°C° 0 mm 3 mps 758 mmHg 47%
    01:00 +27°C° 0.1 mm 4 mps 758 mmHg 50%
    02:00 +26°C° 0.1 mm 4 mps 758 mmHg 53%
    03:00 +26°C° 0.1 mm 4 mps 758 mmHg 56%
    04:00 +25°C° 0 mm 4 mps 758 mmHg 56%
    05:00 +25°C° 0 mm 4 mps 758 mmHg 56%
    06:00 +25°C° 0 mm 5 mps 758 mmHg 56%
    07:00 +26°C° 0 mm 6 mps 758 mmHg 51%
    08:00 +28°C° 0 mm 6 mps 758 mmHg 46%
    09:00 +29°C° 0 mm 7 mps 758 mmHg 41%
    10:00 +30°C° 0 mm 7 mps 758 mmHg 38%
    11:00 +32°C° 0 mm 7 mps 758 mmHg 36%
    12:00 +34°C° 0 mm 7 mps 758 mmHg 33%
    13:00 +34°C° 0 mm 7 mps 758 mmHg 32%
    14:00 +34°C° 0 mm 6 mps 758 mmHg 32%
    15:00 +35°C° 0 mm 6 mps 758 mmHg 31%
    16:00 +34°C° 0 mm 6 mps 758 mmHg 32%
    17:00 +34°C° 0 mm 5 mps 758 mmHg 34%
    18:00 +33°C° 0 mm 5 mps 758 mmHg 35%
    19:00 +30°C° 0 mm 4 mps 758 mmHg 41%
    20:00 +28°C° 0 mm 4 mps 758 mmHg 47%
    21:00 +26°C° 0 mm 3 mps 758 mmHg 53%
    22:00 +25°C° 0 mm 3 mps 758 mmHg 54%
    23:00 +25°C° 0 mm 3 mps 759 mmHg 56%

    26 August, Monday

    Time Temperature Precipitation Wind Pressure Humidity
    00:00 +24°C° 0 mm 3 mps 759 mmHg 57%
    01:00 +24°C° 0 mm 3 mps 759 mmHg 57%
    02:00 +24°C° 0 mm 3 mps 759 mmHg 56%
    03:00 +22°C° 0 mm 4 mps 759 mmHg 56%
    04:00 +22°C° 0 mm 4 mps 759 mmHg 55%
    05:00 +22°C° 0 mm 4 mps 759 mmHg 53%
    06:00 +21°C° 0 mm 4 mps 759 mmHg 52%
    07:00 +23°C° 0 mm 5 mps 759 mmHg 47%
    08:00 +26°C° 0 mm 5 mps 760 mmHg 42%
    09:00 +28°C° 0 mm 6 mps 760 mmHg 37%
    10:00 +29°C° 0 mm 6 mps 760 mmHg 34%
    11:00 +32°C° 0 mm 7 mps 760 mmHg 31%
    12:00 +33°C° 0 mm 7 mps 761 mmHg 29%
    13:00 +33°C° 0 mm 7 mps 761 mmHg 29%
    14:00 +34°C° 0 mm 7 mps 761 mmHg 28%
    15:00 +34°C° 0 mm 7 mps 760 mmHg 28%
    16:00 +33°C° 0 mm 6 mps 761 mmHg 30%
    17:00 +32°C° 0 mm 6 mps 761 mmHg 31%
    18:00 +32°C° 0 mm 6 mps 761 mmHg 33%
    19:00 +29°C° 0 mm 6 mps 761 mmHg 38%
    20:00 +27°C° 0 mm 5 mps 761 mmHg 42%
    21:00 +25°C° 0 mm 5 mps 762 mmHg 47%
    22:00 +25°C° 0 mm 5 mps 762 mmHg 43%
    23:00 +23°C° 0 mm 5 mps 762 mmHg 40%

    27 August, Tuesday

    Time Temperature Precipitation Wind Pressure Humidity
    00:00 +23°C° 0 mm 6 mps 762 mmHg 37%
    01:00 +22°C° 0 mm 6 mps 762 mmHg 40%
    02:00 +21°C° 0 mm 5 mps 762 mmHg 43%
    03:00 +21°C° 0 mm 5 mps 762 mmHg 46%
    04:00 +20°C° 0 mm 5 mps 762 mmHg 47%
    05:00 +20°C° 0 mm 5 mps 763 mmHg 49%
    06:00 +20°C° 0 mm 5 mps 763 mmHg 50%
    07:00 +22°C° 0 mm 5 mps 763 mmHg 45%
    08:00 +23°C° 0 mm 6 mps 763 mmHg 40%
    09:00 +26°C° 0 mm 6 mps 763 mmHg 36%
    10:00 +28°C° 0 mm 6 mps 763 mmHg 33%
    11:00 +29°C° 0 mm 6 mps 763 mmHg 31%
    12:00 +30°C° 0 mm 6 mps 763 mmHg 28%
    13:00 +32°C° 0 mm 6 mps 762 mmHg 27%
    14:00 +32°C° 0 mm 6 mps 762 mmHg 25%
    15:00 +32°C° 0 mm 6 mps 762 mmHg 24%
    16:00 +30°C° 0 mm 6 mps 762 mmHg 24%
    17:00 +29°C° 0 mm 6 mps 762 mmHg 24%
    18:00 +29°C° 0 mm 5 mps 762 mmHg 24%
    19:00 +27°C° 0 mm 5 mps 762 mmHg 26%
    20:00 +25°C° 0 mm 4 mps 762 mmHg 28%
    21:00 +22°C° 0 mm 4 mps 762 mmHg 30%
    22:00 +21°C° 0 mm 4 mps 762 mmHg 30%
    23:00 +21°C° 0 mm 4 mps 762 mmHg 30%
    Show more